EHI
0 0 0 0 0 0 0 1 1 1 0 0 0 0 0 1 2 3 1 0 0 0 0 0 0 0 0 1 1 1 0 0 0 0 0 0 0 0 0 0 0 0 0
0 0 0 0 0 0 0 0 0 0 0 0 0 0 0 1 2 3 2 1 0 0 0 0 0 0 0 0 0 0 0 0 0 0 0 0 0 0 0 0 0 0 0
0 0 0 0 0 0 0 0 0 0 0 0 0 0 0 0 1 2 2 1 0 0 0 0 0 0 0 0 0 0 0 0 0 0 0 0 0 0 0 0 0 0 0
0 0 0 0 0 0 0 0 0 0 0 0 0 0 0 0 0 1 1 0 0 0 0 0 0 0 0 0 0 0 0 0 0 0 0 0 0 0 0 0 0 0 0
0 0 0 0 0 0 0 0 0 0 0 0 0 0 0 0 0 0 0 0 0 0 0 0 0 0 0 0 0 0 0 0 0 0 0 0 0 0 0 0 0 0 0
0 0 0 0 0 0 0 0 0 0 0 0 0 0 0 0 0 0 0 0 0 0 0 0 0 0 0 0 0 0 0 0 0 0 0 0 0 0 0 0 0 0 0
0 0 0 0 0 0 0 0 0 0 0 0 0 0 0 0 0 0 0 0 0 0 0 0 0 0 0 0 0 0 0 0 0 0 0 0 0 0 0 0 0 0 0
0 0 0 0 0 0 0 0 0 0 0 1 1 0 0 0 0 0 0 0 0 0 0 0 0 0 0 0 0 0 0 0 0 0 0 0 0 0 0 0 0 0 0
0 0 0 0 0 0 0 0 0 0 1 2 2 1 0 0 0 0 0 0 0 0 0 0 0 0 0 0 0 0 0 0 0 0 0 0 0 0 0 0 0 0 0
0 0 0 0 0 0 0 0 0 0 1 2 3 2 0 0 0 0 0 0 0 0 0 0 0 0 0 0 0 0 0 0 0 0 0 0 0 0 0 0 0 0 0
0 0 0 0 0 0 0 0 0 0 0 1 2 1 0 0 0 0 0 0 0 0 0 0 0 0 0 0 0 0 0 0 0 0 0 0 0 0 0 0 0 0 0
0 0 0 0 0 0 0 0 0 0 0 0 0 0 0 0 0 0 0 0 0 0 0 0 0 0 0 0 0 0 0 0 0 0 0 0 0 0 0 0 0 0 0
0 0 0 0 0 0 0 0 0 0 0 0 0 0 0 0 0 0 0 0 0 0 0 0 0 0 0 0 0 0 0 0 0 0 0 0 0 0 0 0 0 0 0
0 0 0 0 0 0 0 0 0 0 0 0 0 0 0 0 0 0 0 0 0 0 0 0 0 0 0 0 0 0 0 0 0 0 0 0 0 0 0 0 0 0 0
0 0 0 0 0 0 0 0 0 0 0 0 0 0 0 0 0 0 0 0 0 0 0 0 0 0 0 0 0 0 0 0 0 0 0 0 0 0 0 0 0 0 0
0 0 0 0 0 0 0 0 0 0 0 0 0 0 0 0 0 0 0 0 0 0 0 0 0 0 0 0 0 0 0 0 0 0 0 0 0 0 0 0 0 0 0
0 0 0 0 0 0 0 0 0 0 0 0 0 0 0 0 0 0 0 0 0 0 0 0 0 0 0 0 0 0 0 0 0 0 0 0 0 0 0 0 0 0 0
0 0 0 0 0 0 0 0 0 0 0 0 0 0 0 0 0 0 0 0 0 0 0 0 0 0 0 0 0 0 0 0 0 0 0 0 0 0 0 0 0 0 0
0 0 0 0 0 0 0 0 0 0 0 0 0 0 0 0 0 0 0 0 0 0 0 0 0 0 0 0 0 0 0 0 0 0 0 0 0 0 0 0 0 0 0
0 0 0 0 0 0 0 0 0 0 0 0 0 0 0 0 0 0 0 0 0 0 0 0 0 0 0 0 0 0 0 0 0 0 0 0 0 0 0 0 0 0 0
0 0 0 0 0 0 0 0 0 0 0 0 0 0 0 0 0 0 0 0 0 0 0 0 0 0 0 0 0 0 0 0 0 0 0 0 0 0 0 0 0 0 0
0 0 0 0 0 0 0 0 0 0 0 0 0 0 0 0 0 0 0 0 0 0 0 0 0 0 0 0 0 0 0 0 0 0 0 0 0 0 0 0 0 0 0
0 0 0 0 0 0 0 0 0 0 0 0 0 0 0 0 0 0 0 0 0 0 0 0 0 0 0 0 0 0 0 0 0 0 0 0 0 0 0 0 0 0 0
0 0 0 0 0 0 0 0 0 0 0 0 0 0 0 0 0 0 0 0 0 0 0 0 0 0 0 0 0 0 0 0 0 0 0 0 0 0 0 0 0 0 0
0 0 0 0 0 0 0 0 0 0 0 0 0 0 0 0 0 0 0 0 0 0 0 0 0 0 0 0 0 0 0 0 0 0 0 0 0 0 0 0 0 0 0
0 0 0 0 0 0 0 0 0 0 0 0 0 0 0 0 0 0 0 0 0 0 0 0 0 0 0 0 0 0 0 0 0 0 0 0 0 0 0 0 0 0 0
Wind_Speed
9 8 8 8 8 8 9 10 9 9 8 6 6 6 6 5 5 5 7 8 8 8 7 6 6 6 5 7 7 7 7 6 5 5 4 3 3 3 2 2 2 2 2
7 7 7 7 8 9 9 9 10 10 9 7 6 5 5 5 5 4 6 8 8 7 7 7 6 6 6 8 8 8 6 4 4 4 4 3 3 2 2 1 2 2 1
9 8 7 8 8 8 9 8 10 10 10 9 6 5 4 4 4 5 5 7 7 7 7 8 7 7 7 7 8 8 8 6 4 3 2 3 3 2 2 1 1 1 1
8 7 7 8 8 8 8 9 9 10 9 9 8 9 7 7 7 5 5 6 7 7 8 8 8 7 6 8 8 8 6 7 6 3 1 0 2 2 3 2 2 1 0
7 7 7 7 7 7 7 8 9 9 9 9 10 10 8 7 5 6 7 6 6 7 7 8 8 8 7 8 8 7 6 6 5 4 3 2 2 1 2 3 3 1 1
5 5 5 5 5 5 6 7 8 8 9 9 10 10 10 9 8 8 7 6 5 5 7 8 7 8 7 8 8 7 7 6 5 4 3 3 3 3 2 2 3 2 1
3 4 5 5 5 5 6 7 8 8 8 9 9 10 10 10 10 9 8 7 5 5 7 7 7 7 7 7 7 7 6 6 6 5 4 3 2 2 2 3 2 2 1
1 2 4 5 5 5 6 7 8 7 8 8 8 8 8 7 6 8 7 7 5 6 7 7 7 7 8 7 7 6 6 5 6 6 5 3 2 2 2 2 3 2 2
0 1 2 3 4 5 6 7 8 7 7 8 8 7 7 7 7 7 7 5 5 5 7 8 8 8 7 7 7 6 6 6 5 5 5 4 3 2 2 2 3 3 3
1 1 0 1 2 3 4 6 7 7 7 7 7 6 7 7 7 6 7 6 6 5 7 7 7 7 7 7 7 6 6 6 5 4 5 4 3 3 2 3 2 3 3
1 1 0 1 1 2 3 4 5 6 6 6 6 6 6 6 6 6 6 6 6 6 7 7 7 7 7 7 7 7 7 6 6 5 5 5 4 3 3 2 2 3 3
1 1 0 1 1 2 2 3 4 5 5 5 5 5 5 5 5 6 6 6 6 6 7 7 7 7 7 7 7 7 7 7 6 6 6 5 4 4 3 3 3 2 2
2 1 1 1 1 2 2 2 3 4 4 5 5 5 5 5 5 5 5 5 6 6 6 7 7 7 7 7 7 7 7 6 6 6 6 5 5 5 3 3 3 2 2
2 2 1 1 1 1 2 2 2 3 4 4 5 5 5 5 5 5 5 5 6 6 6 6 6 6 6 6 7 7 6 6 5 5 5 5 5 5 4 3 3 3 2
2 2 1 1 1 1 1 2 2 2 3 4 4 4 4 4 4 5 5 5 5 5 6 6 6 6 5 5 6 6 6 6 5 5 5 4 4 4 4 3 3 3 3
3 2 1 1 1 1 1 1 1 1 3 4 4 4 4 4 4 4 5 5 5 5 5 5 6 6 5 6 7 6 6 6 6 5 5 4 5 5 5 5 5 5 5
2 2 1 1 1 1 1 1 1 1 2 3 3 4 4 4 4 4 4 4 5 5 5 5 5 5 5 7 8 7 5 5 5 5 5 4 4 5 4 4 4 5 6
2 2 1 1 1 1 1 1 1 2 2 3 3 3 4 4 4 4 4 4 4 5 5 5 5 5 5 7 7 7 5 4 4 5 5 5 5 5 4 4 4 4 4
2 2 1 1 1 1 1 2 2 2 3 2 2 3 3 4 4 4 4 4 4 4 4 4 5 5 5 6 6 5 4 4 4 4 4 5 5 5 5 4 4 3 3
3 3 3 3 2 2 2 2 2 2 2 2 2 2 2 3 3 4 4 3 4 4 4 4 4 5 4 6 6 6 4 4 3 3 3 5 5 5 6 5 4 4 4
3 4 3 3 3 3 2 3 2 2 1 1 2 2 2 2 2 2 3 3 3 3 3 3 3 3 3 5 6 6 4 4 3 3 3 3 5 5 5 5 5 5 3
4 4 4 4 4 3 3 4 3 2 2 2 2 2 2 2 2 2 2 3 3 3 3 3 2 2 2 3 4 5 4 3 3 3 3 3 4 4 5 4 4 3 3
5 5 5 5 5 5 4 4 3 3 3 3 3 3 3 3 2 2 2 2 2 2 2 2 2 1 1 2 4 4 4 4 2 2 3 3 3 3 3 3 4 3 3
5 5 5 5 5 5 5 4 3 3 4 4 4 3 3 3 2 2 1 1 2 2 2 2 2 1 1 1 1 2 2 3 2 1 2 2 2 2 2 2 2 2 2
5 5 5 5 5 5 5 5 4 4 4 4 4 3 3 3 3 2 2 1 0 1 1 1 1 2 1 1 1 1 1 1 2 1 1 1 1 1 1 1 2 1 2
4 4 5 5 5 5 6 5 5 4 4 4 3 3 2 2 2 2 3 5 3 4 3 2 0 0 1 1 0 0 1 1 2 2 2 1 1 2 2 2 2 2 2
Wind_Direction
238 227 215 208 203 201 200 197 192 185 178 176 179 180 184 182 184 186 186 184 181 180 180 176 173 179 175 167 163 152 145 139 138 129 121 109 102 101 97 92 88 78 64
228 217 209 206 205 201 199 197 192 185 183 185 184 184 180 184 181 182 187 186 184 182 182 181 178 179 173 169 164 157 154 147 162 158 155 156 153 132 100 105 90 72 71
232 220 211 207 207 206 201 197 192 188 185 182 176 162 164 170 179 180 184 189 187 184 183 184 179 178 177 171 168 168 167 164 166 175 185 180 174 141 141 147 131 91 63
234 227 217 210 206 205 202 198 192 188 187 183 182 180 185 189 192 184 183 182 187 186 184 182 179 177 177 171 171 176 172 169 168 167 193 303 118 164 158 167 174 157 309
230 227 218 213 208 201 196 195 191 188 187 187 187 188 192 194 184 178 179 179 183 187 185 184 178 175 176 172 171 173 174 174 174 168 159 148 143 168 180 185 191 195 234
232 227 218 208 201 193 188 186 184 186 189 189 188 191 190 186 180 180 178 179 178 182 185 184 178 175 174 172 174 174 177 174 170 165 169 170 172 179 184 189 193 205 213
232 222 213 205 198 189 186 183 183 183 185 188 191 192 192 186 185 182 182 179 177 178 183 181 177 173 172 171 173 173 177 176 172 169 174 181 183 173 183 170 179 205 210
223 224 215 207 198 191 188 183 185 186 184 185 189 190 188 182 184 186 182 182 181 179 174 175 174 171 170 170 171 172 176 175 175 172 173 173 168 166 171 175 171 189 213
325 238 212 206 201 193 189 186 185 184 184 183 181 183 183 181 182 182 183 180 177 171 174 175 171 169 171 174 172 177 179 178 178 175 174 172 168 170 179 181 189 195 213
16 356 214 203 202 195 187 182 184 182 181 180 181 178 180 184 182 179 180 176 173 170 173 174 170 169 172 173 171 172 179 177 175 173 178 178 174 170 179 191 207 225 225
3 341 142 147 160 167 171 169 175 174 171 173 177 172 174 179 178 177 180 175 170 170 175 173 171 171 173 174 174 174 175 180 175 176 185 187 181 179 185 191 202 214 219
358 356 55 91 112 130 142 156 164 168 169 167 169 167 165 168 173 176 177 171 172 174 175 174 173 171 171 174 179 178 180 184 184 186 188 191 185 192 193 197 206 215 227
12 20 84 91 88 113 132 146 154 167 167 164 163 161 162 166 171 174 171 169 172 174 173 173 175 173 171 174 180 182 183 188 191 192 193 194 190 198 200 206 213 216 220
358 10 52 73 69 94 127 136 149 162 162 163 164 164 165 167 169 169 169 169 169 171 175 176 176 175 174 176 179 182 183 189 194 196 199 199 199 204 203 208 213 210 209
356 354 10 38 57 77 104 122 141 155 162 161 165 169 165 161 160 163 164 162 164 168 170 172 172 173 175 178 181 185 185 188 192 196 203 205 203 209 210 209 209 206 210
333 337 348 7 40 67 93 116 129 147 164 165 168 166 161 157 160 162 159 158 161 164 166 172 175 177 179 172 177 185 188 188 193 197 201 199 196 197 207 217 224 223 219
314 317 329 339 3 40 78 99 126 137 158 163 162 160 156 156 162 160 158 161 163 165 169 174 180 184 180 173 179 185 192 195 199 200 200 202 200 202 206 213 227 236 241
326 330 351 14 21 33 56 89 128 136 141 148 152 155 160 159 160 160 164 165 165 170 175 178 183 185 181 174 180 183 192 195 203 204 204 207 207 205 205 213 225 239 246
329 338 3 31 37 52 70 100 114 124 128 136 147 152 157 158 161 167 170 167 166 170 175 177 180 181 180 175 178 181 188 193 203 207 207 209 211 200 197 206 219 238 256
9 18 34 45 48 45 70 91 97 102 108 125 142 143 151 160 169 172 168 164 165 169 167 172 181 182 183 174 177 185 188 191 195 204 208 212 213 204 201 211 216 230 248
29 39 49 51 42 44 79 85 80 73 75 104 118 119 126 144 158 154 155 157 155 154 156 164 174 177 177 170 179 189 192 192 191 202 211 208 201 208 219 230 231 230 248
39 42 48 45 37 43 65 72 61 49 66 91 95 97 99 105 121 127 132 143 146 146 148 147 156 165 170 172 182 190 196 205 204 211 216 209 199 215 232 238 227 225 238
37 39 48 48 39 37 48 67 56 59 75 88 91 91 86 81 90 115 130 132 134 145 153 149 154 165 174 173 178 187 192 200 219 222 218 214 206 220 231 214 219 228 230
33 37 47 49 41 36 40 48 52 62 76 78 79 89 93 89 83 83 104 131 149 161 165 166 173 175 175 177 172 181 183 183 197 197 170 174 196 218 224 227 230 235 235
33 37 45 47 42 36 38 37 41 57 71 72 73 76 83 92 86 79 66 83 108 178 171 179 185 182 202 212 222 214 207 208 199 190 197 218 221 225 235 249 257 252 243
36 38 41 44 40 37 37 32 34 45 59 67 65 68 74 78 87 93 76 59 63 66 64 64 75 47 90 115 138 243 221 185 170 183 209 224 237 242 244 248 258 260 255